Terminal Aerodrome Forecast
Issued by NWS Blacksburg, VA

Home | Current Version | Previous Version | Text Only | Print | Product List | Glossary On
Versions: 1 2 3 4 5 6 7 8 9 10 11 12 13 14 15 16 17 18 19 20 21 22 23 24
000
FTUS41 KRNK 030101 AAM
TAFDAN
TAF AMD
KDAN 030101Z 0301/0324 23008KT P6SM FEW150
     FM030800 26007KT P6SM SKC
     FM031500 25011G21KT P6SM FEW080
     FM032200 24010KT P6SM FEW100=

USA.gov is the U.S. government's official web portal to all federal, state and local government web resources and services.